Regional Weather Roundup
Issued by NWS

Home | Current Version | Previous Version | Graphics & Text | Print | Product List | Glossary On
Versions: 1 2 3 4 5 6 7 8 9 10 11 12 13 14 15 16 17 18 19 20 21 22 23 24 25 26 27 28 29 30 31 32 33 34 35 36 37 38 39 40 41 42 43 44 45 46 47 48 49 50
670
ASUS43 KBIS 140310
RWRND

NORTH DAKOTA REGIONAL WEATHER ROUNDUP
NATIONAL WEATHER SERVICE BISMARCK ND
900 PM CST SAT FEB 13 2016

NOTE: "FAIR" INDICATES FEW OR NO CLOUDS BELOW 12,000 FEET WITH NO
SIGNIFICANT WEATHER AND/OR OBSTRUCTIONS TO VISIBILITY.


NDZ001>003-009>011-017-140400-
NORTHWEST NORTH DAKOTA

CITY           SKY/WX    TMP DP  RH WIND       PRES   REMARKS
WILLISTON      CLOUDY    24  20  84 CALM      29.78S
MINOT          LGT SNOW  17  11  77 SE10      29.82F WCI   5
MINOT AFB      LGT SNOW  16  14  93 SE8       29.82F FOG     WCI   5
$$

NDZ018>021-031>035-040>046-140400-
SOUTHWEST NORTH DAKOTA

CITY           SKY/WX    TMP DP  RH WIND       PRES   REMARKS
BISMARCK       FLURRIES  18  12  77 SE14      29.89F WCI   4
DICKINSON      CLOUDY    35  31  85 W16G25    29.74F
GARRISON         N/A     16  13  88 SE12      29.81F WCI   3
HETTINGER ARPT CLOUDY    26  24  92 S5        29.81F
$$

NDZ004>008-012>016-024-026-027-054-140400-
NORTHEAST NORTH DAKOTA

CITY           SKY/WX    TMP DP  RH WIND       PRES   REMARKS
GRAND FORKS    FLURRIES  13   2  61 SE21      30.12F WCI  -5
GRND FRKS AFB  CLOUDY    13   2  61 S23G31    30.09F WCI  -6
DEVILS LAKE    LGT SNOW   9   5  85 SE21      29.97F FOG     WCI -11
$$

NDZ022-023-025-028>030-036>039-047>053-140400-
SOUTHEAST NORTH DAKOTA

CITY           SKY/WX    TMP DP  RH WIND       PRES   REMARKS
FARGO          CLOUDY    15   0  51 SE20G30   30.13F WCI  -2
JAMESTOWN      SNOW      10   6  84 SE15      29.99F VSB 1/4 WCI  -7
$$





USA.gov is the U.S. government's official web portal to all federal, state and local government web resources and services.